Location: Bord�res
(43.2000°N, 0.2167°W)
Time: 11:29:14
(UTC+00:00)

Cosmos 1500 - Pass Details

Date: 03 March 2021
Orbit: 499 x 517 km, 82.5° (Epoch: 21 April)

Event Time Altitude Azimuth Distance (km) Brightness Sun altitude
Rises 18:45:02 0° 174° (S) 2,577 6.7 -10.3°
Reaches altitude 10° 18:47:11 10° 169° (S) 1,698 5.7 -10.7°
Maximum altitude 18:50:46 48° 94° (E) 657 3.3 -11.4°
Drops below altitude 10° 18:54:23 10° 19° (NNE) 1,712 5.7 -12.0°
Sets 18:56:33 0° 14° (NNE) 2,602 6.7 -12.4°
